Lid_Strength_Index
9 9 9 9 9 9 10 9 12 10 11 10 8 6 5 4 5 5 5 4 3 3 4 3 4 2 2 2 1 1 2 1 1 1 1 1 1 0 0 0 0 0 0 0
11 9 9 10 9 9 9 9 9 9 9 6 6 5 6 5 5 5 5 4 3 3 4 4 4 3 2 2 2 1 2 2 1 1 1 1 1 1 0 0 0 0 1 1
14 10 10 12 9 9 8 8 8 10 8 6 6 6 5 5 5 5 4 4 3 4 3 4 4 3 3 2 1 1 2 1 1 1 2 2 1 1 1 1 1 1 1 1
14 11 18 10 7 7 8 8 8 8 7 6 5 5 4 4 4 4 4 4 3 3 3 3 3 3 2 2 2 2 2 1 1 1 1 1 2 2 1 1 1 0 1 0
16 16 12 10 9 10 11 11 7 8 6 6 5 5 5 3 3 3 3 3 2 2 2 2 3 2 2 2 2 2 2 2 1 1 1 1 2 1 1 1 1 1 0 1
14 18 19 13 9 7 7 14 8 8 8 8 7 11 7 4 3 3 2 2 2 2 3 3 3 2 2 2 2 2 2 1 1 1 1 2 2 1 1 1 1 1 1 1
15 17 13 10 8 7 16 13 8 7 7 7 9 7 5 4 4 3 3 2 2 2 3 3 3 2 2 2 2 1 1 1 1 1 1 1 1 1 1 1 1 1 1 1
14 16 17 7 7 13 8 7 7 6 6 7 5 5 5 4 4 3 3 3 2 2 4 3 2 3 2 2 1 1 1 1 1 2 1 1 1 1 1 1 2 2 2 2
14 12 7 6 6 6 6 7 7 7 5 5 6 6 5 4 4 3 3 3 2 3 4 3 2 2 2 2 1 1 1 1 1 2 2 1 1 2 2 1 2 2 2 2
10 8 7 5 5 5 6 7 6 5 5 5 6 6 4 4 3 3 3 3 2 3 4 4 3 2 1 1 1 1 1 1 1 2 2 1 1 1 2 2 2 2 2 2
9 7 6 6 5 6 6 6 6 5 5 5 6 5 4 4 3 3 3 2 3 3 4 4 3 2 1 1 1 1 1 1 1 2 2 2 1 1 1 1 2 1 2 2
12 7 7 7 6 5 6 7 6 6 6 4 5 5 4 4 3 3 3 3 4 4 3 3 2 2 1 1 1 1 2 2 2 2 1 2 2 2 12 11 12 11 10 4
7 4 5 5 6 5 7 7 5 5 5 5 4 4 4 4 3 4 3 3 4 4 3 2 2 2 1 1 1 1 2 1 2 2 1 2 2 2 3 4 11 12 12 11
4 4 6 6 8 6 6 6 5 4 4 4 4 3 3 4 4 3 4 4 3 3 2 2 2 2 1 1 1 1 1 6 1 1 1 1 2 2 2 2 3 2 9 8
4 4 6 6 6 6 6 6 6 5 5 4 4 4 4 5 5 4 3 3 3 3 2 2 2 2 1 1 1 1 1 1 1 1 1 2 1 2 2 2 2 2 2 6
4 4 7 8 7 7 7 8 9 8 5 5 5 5 4 4 3 4 4 3 3 4 2 2 2 1 1 1 1 1 1 5 4 1 1 1 1 2 2 2 3 2 2 2
6 6 7 9 8 8 8 10 9 10 7 7 5 5 6 5 5 5 6 5 3 4 2 2 2 1 1 1 1 1 1 1 7 1 1 1 1 2 2 2 2 2 2 2
3 4 6 7 8 8 9 10 10 9 8 8 7 7 8 8 8 6 5 4 4 6 5 4 5 4 1 1 1 1 1 1 1 1 1 1 1 1 1 2 2 2 1 3
4 5 6 7 7 8 10 11 10 11 10 8 9 10 10 8 9 8 9 8 8 9 9 6 10 4 1 2 2 1 1 1 1 1 1 4 1 1 1 1 1 1 1 1
4 4 5 7 7 8 9 10 10 11 11 10 9 11 12 11 8 9 11 13 13 12 10 8 4 2 1 2 6 1 1 1 1 1 1 1 1 1 1 4 1 1 1 1
4 4 5 6 7 8 8 10 11 11 11 11 11 12 11 12 13 10 10 12 13 13 11 11 8 6 4 5 2 1 1 1 1 1 1 1 1 1 1 1 1 1 1 1
4 4 4 5 6 8 9 10 11 11 12 12 12 12 12 12 11 13 13 14 13 16 13 12 11 15 9 10 4 2 2 1 1 1 2 2 2 3 2 2 2 2 2 2
3 4 4 5 6 7 9 9 10 12 12 13 13 13 13 12 12 13 15 13 14 15 13 14 16 15 14 7 7 7 6 5 4 4 5 5 5 6 6 6 5 5 5 6
3 3 3 3 5 6 9 10 10 11 12 12 13 13 13 12 12 11 13 15 16 14 14 15 15 15 14 10 11 11 10 10 10 10 9 11 9 9 9 9 9 9 9 10
2 3 3 3 4 5 6 9 11 11 12 13 13 12 12 12 12 12 11 11 14 13 13 15 15 16 13 13 13 13 12 12 12 12 12 12 12 12 12 12 11 11 11 12
2 3 3 3 3 4 5 7 10 11 11 13 13 12 12 11 11 10 11 12 11 12 13 14 14 14 14 14 14 14 14 14 14 14 13 13 13 13 13 13 13 13 13 13
2 6 3 4 4 5 5 6 8 9 10 10 11 10 11 11 11 11 12 10 10 11 11 13 14 15 14 14 14 14 15 14 15 14 14 14 14 14 14 14 13 13 13 13